This is the latest recevied weather packets stored in our database for station/object ED5YAL-15. If no packets are shown the sender has not sent any weather packets the latest 10 day(s).
| Time | Temp. | Humidity | Pressure | Rain* | Wind** | Luminosity | Snow |
|---|---|---|---|---|---|---|---|
| 1777783595 | 14.44° C | 57% | 1018.4 hPa | - | - | - | - |
| 1777782694 | 15° C | 57% | 1018.3 hPa | - | - | - | - |
| 1777781794 | 15.56° C | 57% | 1018.1 hPa | - | - | - | - |
| 1777780893 | 15° C | 57% | 1018.2 hPa | - | - | - | - |
| 1777780767 | 14.44° C | 57% | 1018.3 hPa | - | - | - | - |
| 1777779992 | 15° C | 57% | 1018.3 hPa | - | - | - | - |
| 1777779091 | 15° C | 57% | 1018.4 hPa | - | - | - | - |
| 1777778190 | 14.44° C | 57% | 1018.4 hPa | - | - | - | - |
| 1777777290 | 14.44° C | 57% | 1018.3 hPa | - | - | - | - |
| 1777776896 | 15° C | 57% | 1018.4 hPa | - | - | - | - |
| 1777776389 | 15° C | 57% | 1018.4 hPa | - | - | - | - |
| 1777775488 | 14.44° C | 58% | 1018.4 hPa | - | - | - | - |
| 1777774587 | 16.11° C | 58% | 1018.2 hPa | - | - | - | - |
| 1777773710 | 13.89° C | 58% | 1018.5 hPa | - | - | - | - |
| 1777772805 | 13.89° C | 57% | 1018.6 hPa | - | - | - | - |
| 1777771904 | 14.44° C | 57% | 1018.6 hPa | - | - | - | - |
| 1777771003 | 14.44° C | 57% | 1018.8 hPa | - | - | - | - |
| 1777770102 | 14.44° C | 57% | 1019 hPa | - | - | - | - |
| 1777769204 | 15° C | 57% | 1019.3 hPa | - | - | - | - |
| 1777768300 | 15° C | 57% | 1019.8 hPa | - | - | - | - |
| 1777767400 | 15° C | 57% | 1019.8 hPa | - | - | - | - |
| 1777766499 | 13.89° C | 58% | 1019.9 hPa | - | - | - | - |
| 1777765598 | 13.89° C | 58% | 1020.2 hPa | - | - | - | - |
| 1777764697 | 13.89° C | 57% | 1020.5 hPa | - | - | - | - |
| 1777763796 | 14.44° C | 57% | 1020.4 hPa | - | - | - | - |
* Rain since midnight (hover to see other rain measurements)
** Current wind speed in m/s (hover to see current wind gust speed)